{"data":{"norad_id":56021,"epoch":"2026-05-24T20:45:42.454080Z","epoch_age_seconds":86231,"freshness":"FRESH","line1":"1 56021U 23042AM  26144.86507470  .00001282  00000+0  56134-4 0  9994","line2":"2 56021  43.0048 335.1881 0002768 251.4804 108.5747 15.27578931174687","mean_motion":15.27578931,"eccentricity":0.0002768,"inclination_deg":43.0048,"raan_deg":335.1881,"arg_perigee_deg":251.4804,"mean_anomaly_deg":108.5747,"bstar":5.6134e-5,"rev_number":17468,"period_min":94.266814681539,"perigee_km":481.15311981468,"apogee_km":484.9514742095,"semimajor_km":6861.1892970121,"source":"CELESTRAK","updated_at":"2026-05-25T13:38:17.948245Z"}}